Location: Clatteringshaws Loch
(55.0508°N, 4.2860°W)
Time: 10:28:09
(UTC+01:00)

Amateur Radio Satellites - All Passes

Search period start: 15 September 2014 09:58
Search period end: 16 September 2014 09:58
Location: Clatteringshaws Loch, 55.0508°N, 4.2860°W

Satellite Date Start Highest point End Downlink Frequencies (MHz)
Time Altitude Azimuth
FUNcube-1 15 Sep 10:29:08 10:31:59 16° 86° (E) 10:34:49 145.950 - 145.970 MHz USB
MaSat-1 15 Sep 10:34:36 10:39:33 56° 119° (ESE) 10:44:22 437.345 MHz
AO-7 15 Sep 10:34:50 10:39:11 16° 347° (NNW) 10:43:32 29.400 - 29.500 MHz
JAS-1B 15 Sep 10:37:52 10:38:38 10° 25° (NNE) 10:39:24 435.800 - 435.900 CW/SSB
Oscar 11 15 Sep 10:52:27 10:56:40 45° 99° (E) 11:00:51 145.825 FM, Beacon 2401.500 USB
ISS 15 Sep 10:54:53 10:57:20 19° 210° (SSW) 10:59:46 145.800 FM
UKube-1 15 Sep 11:03:57 11:08:19 71° 104° (ESE) 11:12:40 145.840 MHz, 145.915 MHz
Oscar 16 15 Sep 11:10:12 11:10:50 10° 39° (NE) 11:11:28 437.025 USB, Beacon 2401.1428
HO-68 15 Sep 11:14:14 11:21:26 80° 293° (WNW) 11:28:36 435.675 MHz FM
RS-15 15 Sep 11:30:07 11:40:51 55° 14° (NNE) 11:51:50 29.354 - 29.394 USB, Beacon 29.352 USB
UOSAT-12 15 Sep 11:31:10 11:34:27 19° 245° (WSW) 11:37:43 437.025 FM, 437.400 FM
Uribyol 2 15 Sep 11:48:18 11:49:11 10° 39° (NE) 11:50:05 436.500 FM
AO-Echo 15 Sep 12:03:03 12:04:10 11° 44° (NE) 12:05:17 ?
FUNcube-1 15 Sep 12:04:22 12:09:02 89° 286° (WNW) 12:13:41 145.950 - 145.970 MHz USB
Oscar 19 15 Sep 12:07:23 12:11:16 22° 52° (NE) 12:15:10 437.125 CW, 437.150 USB
MaSat-1 15 Sep 12:11:54 12:16:38 38° 319° (NW) 12:21:09 437.345 MHz
AO-27 15 Sep 12:14:10 12:16:53 15° 45° (NE) 12:19:38 436.795 MHz FM
JAS-1B 15 Sep 12:20:40 12:27:08 28° 50° (NE) 12:32:48 435.800 - 435.900 CW/SSB
AO-7 15 Sep 12:24:21 12:28:53 16° 15° (NNE) 12:33:24 29.400 - 29.500 MHz
Oscar 11 15 Sep 12:28:56 12:32:44 30° 299° (WNW) 12:36:31 145.825 FM, Beacon 2401.500 USB
Gurwin Techsat 1B 15 Sep 12:39:10 12:41:26 13° 42° (NE) 12:43:42 435.225 FM
UKube-1 15 Sep 12:40:52 12:44:08 21° 304° (NW) 12:47:24 145.840 MHz, 145.915 MHz
Oscar 16 15 Sep 12:44:07 12:48:52 37° 61° (ENE) 12:53:38 437.025 USB, Beacon 2401.1428
HO-68 15 Sep 13:02:34 13:08:17 27° 315° (NW) 13:14:00 435.675 MHz FM
ITAMSAT 1 15 Sep 13:17:19 13:21:55 34° 59° (ENE) 13:26:32 435.822 SSB
TMSAT-1 15 Sep 13:18:01 13:21:24 18° 48° (NE) 13:24:48 436.925 FM
Uribyol 2 15 Sep 13:22:38 13:27:22 38° 61° (ENE) 13:32:08 436.500 FM
AO-Echo 15 Sep 13:37:23 13:41:55 46° 65° (ENE) 13:46:24 ?
FUNcube-1 15 Sep 13:41:42 13:44:51 19° 306° (NW) 13:48:01 145.950 - 145.970 MHz USB
Sapphire 15 Sep 13:42:03 13:46:35 28° 113° (ESE) 13:51:08 437.095 MHz 1200 baud AX-25 AFSK
RS-15 15 Sep 13:43:20 13:54:24 90° 224° (SW) 14:05:50 29.354 - 29.394 USB, Beacon 29.352 USB
Oscar 19 15 Sep 13:44:49 13:50:02 88° 253° (WSW) 13:55:17 437.125 CW, 437.150 USB
AO-27 15 Sep 13:50:23 13:55:26 56° 66° (ENE) 14:00:31 436.795 MHz FM
MaSat-1 15 Sep 13:51:28 13:54:41 17° 342° (NNW) 13:57:46 437.345 MHz
JAS-1B 15 Sep 14:08:31 14:17:06 83° 70° (ENE) 14:24:14 435.800 - 435.900 CW/SSB
PCSat 15 Sep 14:08:51 14:13:57 44° 119° (ESE) 14:19:05 145.825 MHz
AO-7 15 Sep 14:12:18 14:19:15 31° 41° (NE) 14:26:12 29.400 - 29.500 MHz
Gurwin Techsat 1B 15 Sep 14:15:12 14:20:16 47° 64° (ENE) 14:25:21 435.225 FM
Oscar 16 15 Sep 14:23:10 14:28:10 46° 261° (W) 14:33:12 437.025 USB, Beacon 2401.1428
Uosat F 15 Sep 14:44:36 14:47:58 19° 50° (NE) 14:51:21 435.120 FM
HO-68 15 Sep 14:51:28 14:53:44 12° 340° (NNW) 14:56:01 435.675 MHz FM
TMSAT-1 15 Sep 14:55:15 15:00:30 70° 69° (ENE) 15:05:48 436.925 FM
ITAMSAT 1 15 Sep 14:56:14 15:01:16 52° 260° (W) 15:06:21 435.822 SSB
Uribyol 2 15 Sep 15:01:52 15:06:49 45° 261° (W) 15:11:49 436.500 FM
AO-Echo 15 Sep 15:16:39 15:20:53 31° 265° (W) 15:25:06 ?
Sapphire 15 Sep 15:24:10 15:29:36 75° 315° (NW) 15:35:04 437.095 MHz 1200 baud AX-25 AFSK
Oscar 19 15 Sep 15:26:41 15:30:09 18° 274° (W) 15:33:38 437.125 CW, 437.150 USB
AO-27 15 Sep 15:30:47 15:35:17 29° 267° (W) 15:39:49 436.795 MHz FM
MaSat-1 15 Sep 15:30:49 15:33:18 14° 6° (N) 15:35:40 437.345 MHz
PCSat 15 Sep 15:52:03 15:57:22 53° 322° (NW) 16:02:43 145.825 MHz
Gurwin Techsat 1B 15 Sep 15:55:31 16:00:24 37° 265° (W) 16:05:19 435.225 FM
RS-15 15 Sep 15:56:03 16:05:39 37° 251° (WSW) 16:15:34 29.354 - 29.394 USB, Beacon 29.352 USB
JAS-1B 15 Sep 16:01:09 16:08:20 30° 269° (W) 16:14:36 435.800 - 435.900 CW/SSB
AO-7 15 Sep 16:02:49 16:11:08 82° 65° (ENE) 16:19:28 29.400 - 29.500 MHz
Uosat F 15 Sep 16:21:05 16:26:05 80° 71° (ENE) 16:31:07 435.120 FM
TMSAT-1 15 Sep 16:36:41 16:40:57 24° 270° (W) 16:45:14 436.925 FM
JAS-2 15 Sep 16:46:51 16:51:14 28° 57° (ENE) 16:55:38 435.800 - 435.900 CW/SSB, 435.910 FM
OPAL 15 Sep 16:59:02 17:02:32 18° 89° (E) 17:05:59 ?
MaSat-1 15 Sep 17:07:59 17:11:42 24° 30° (NNE) 17:15:03 437.345 MHz
Sapphire 15 Sep 17:09:06 17:13:51 30° 338° (NNW) 17:18:38 437.095 MHz 1200 baud AX-25 AFSK
Hamsat 15 Sep 17:25:58 17:30:04 41° 66° (ENE) 17:34:10 145.90 MHz
PCSat 15 Sep 17:37:25 17:41:56 26° 346° (NNW) 17:46:27 145.825 MHz
AO-7 15 Sep 17:57:39 18:04:50 32° 268° (W) 18:12:04 29.400 - 29.500 MHz
Uosat F 15 Sep 18:01:52 18:05:30 20° 271° (W) 18:09:08 435.120 FM
HO-68 15 Sep 18:19:02 18:23:24 18° 33° (NNE) 18:27:47 435.675 MHz FM
JAS-2 15 Sep 18:30:55 18:36:08 60° 258° (WSW) 18:41:17 435.800 - 435.900 CW/SSB, 435.910 FM
OPAL 15 Sep 18:36:55 18:42:11 88° 109° (ESE) 18:47:21 ?
MaSat-1 15 Sep 18:44:45 18:49:11 89° 236° (WSW) 18:52:57 437.345 MHz
Sapphire 15 Sep 18:54:33 18:58:53 23° 4° (N) 19:03:13 437.095 MHz 1200 baud AX-25 AFSK
Hamsat 15 Sep 19:02:14 19:06:08 31° 266° (W) 19:10:04 145.90 MHz
SO-67 15 Sep 19:03:38 19:07:01 55° 71° (ENE) 19:10:26 435.3500 MHz FM
KITSAT 1 15 Sep 19:06:33 19:07:14 10° 93° (E) 19:07:56 435.175 FM
STRAND 1 15 Sep 19:10:28 19:14:24 22° 90° (E) 19:18:20 ?
Saudisat 1A 15 Sep 19:11:54 19:15:49 32° 123° (ESE) 19:19:46 436.775 MHz
PCSat 15 Sep 19:22:32 19:27:01 25° 12° (NNE) 19:31:29 145.825 MHz
HO-68 15 Sep 20:02:50 20:09:35 47° 57° (ENE) 20:16:21 435.675 MHz FM
OPAL 15 Sep 20:16:29 20:20:30 23° 311° (NW) 20:24:30 ?
Oscar 11 15 Sep 20:20:15 20:22:59 17° 53° (NE) 20:25:44 145.825 FM, Beacon 2401.500 USB
JAS-2 15 Sep 20:21:43 20:22:31 10° 280° (W) 20:23:20 435.800 - 435.900 CW/SSB, 435.910 FM
MaSat-1 15 Sep 20:22:59 20:25:09 14° 258° (WSW) 20:27:10 437.345 MHz
UKube-1 15 Sep 20:31:11 20:34:46 26° 59° (ENE) 20:38:21 145.840 MHz, 145.915 MHz
SO-67 15 Sep 20:38:13 20:40:24 16° 271° (W) 20:42:36 435.3500 MHz FM
Sapphire 15 Sep 20:38:42 20:43:46 37° 29° (NNE) 20:48:48 437.095 MHz 1200 baud AX-25 AFSK
STRAND 1 15 Sep 20:49:02 20:54:10 75° 290° (WNW) 20:59:18 ?
Saudisat 1A 15 Sep 20:50:51 20:55:14 60° 324° (NW) 20:59:38 436.775 MHz
KITSAT 1 15 Sep 20:53:01 21:00:29 43° 116° (ESE) 21:07:58 435.175 FM
PCSat 15 Sep 21:06:21 21:11:39 49° 37° (NE) 21:16:55 145.825 MHz
FUNcube-1 15 Sep 21:32:09 21:35:58 29° 61° (ENE) 21:39:53 145.950 - 145.970 MHz USB
HO-68 15 Sep 21:50:20 21:57:17 53° 259° (W) 22:04:18 435.675 MHz FM
Oscar 11 15 Sep 21:54:12 21:58:34 85° 74° (ENE) 22:02:59 145.825 FM, Beacon 2401.500 USB
UKube-1 15 Sep 22:06:29 22:10:44 54° 259° (WSW) 22:15:01 145.840 MHz, 145.915 MHz
Sapphire 15 Sep 22:22:13 22:27:40 75° 232° (SW) 22:33:05 437.095 MHz 1200 baud AX-25 AFSK
Oscar 10/S400 15 Sep 22:22:13 22:51:24 41° 182° (S) 04:47:34 145.825 - 145.975 CW/USB, Beacon 145.810 USB
STRAND 1 15 Sep 22:29:15 22:32:38 18° 311° (NW) 22:36:01 ?
Saudisat 1A 15 Sep 22:31:47 22:35:35 27° 347° (NNW) 22:39:22 436.775 MHz
KITSAT 1 15 Sep 22:47:28 22:55:34 73° 320° (NW) 23:03:42 435.175 FM
PCSat 15 Sep 22:49:55 22:55:09 49° 239° (WSW) 23:00:21 145.825 MHz
FUNcube-1 15 Sep 23:07:57 23:12:12 48° 261° (W) 23:16:36 145.950 - 145.970 MHz USB
Oscar 11 15 Sep 23:32:47 23:35:23 15° 273° (W) 23:38:01 145.825 FM, Beacon 2401.500 USB
HO-68 15 Sep 23:43:52 23:46:47 13° 282° (WNW) 23:49:43 435.675 MHz FM
SO-50 15 Sep 23:46:27 23:49:45 20° 116° (ESE) 23:53:06 436.795 FM
Sapphire 16 Sep 00:06:47 00:10:16 18° 253° (WSW) 00:13:45 437.095 MHz 1200 baud AX-25 AFSK
Saudisat 1A 16 Sep 00:12:36 00:16:20 26° 11° (N) 00:20:05 436.775 MHz
PCSat 16 Sep 00:36:59 00:37:20 10° 259° (W) 00:37:41 145.825 MHz
KITSAT 1 16 Sep 00:44:39 00:52:14 41° 347° (NNW) 00:59:50 435.175 FM
SO-50 16 Sep 01:25:11 01:29:44 90° 112° (ESE) 01:34:27 436.795 FM
UOSAT-12 16 Sep 01:48:11 01:52:02 26° 119° (ESE) 01:55:57 437.025 FM, 437.400 FM
JAS-1B 16 Sep 01:48:40 01:50:42 12° 77° (ENE) 01:52:42 435.800 - 435.900 CW/SSB
Oscar 19 16 Sep 01:49:52 01:53:40 20° 88° (E) 01:57:26 437.125 CW, 437.150 USB
Saudisat 1A 16 Sep 01:52:23 01:56:45 54° 34° (NE) 02:01:06 436.775 MHz
AO-27 16 Sep 01:58:11 01:59:53 11° 81° (E) 02:01:35 436.795 MHz FM
Gurwin Techsat 1B 16 Sep 02:26:47 02:27:40 10° 80° (E) 02:28:32 435.225 FM
Oscar 16 16 Sep 02:27:20 02:32:12 38° 96° (E) 02:37:00 437.025 USB, Beacon 2401.1428
KITSAT 1 16 Sep 02:41:56 02:49:35 42° 16° (NNE) 02:57:11 435.175 FM
OPAL 16 Sep 02:43:57 02:47:20 18° 45° (NE) 02:50:43 ?
ITAMSAT 1 16 Sep 03:01:41 03:06:25 34° 95° (E) 03:11:08 435.822 SSB
TMSAT-1 16 Sep 03:04:46 03:08:05 17° 85° (E) 03:11:24 436.925 FM
SO-50 16 Sep 03:06:39 03:10:50 33° 340° (NNW) 03:15:08 436.795 FM
Uribyol 2 16 Sep 03:06:57 03:11:51 39° 97° (E) 03:16:43 436.500 FM
AO-Echo 16 Sep 03:15:26 03:20:03 47° 99° (E) 03:24:45 ?
UOSAT-12 16 Sep 03:27:07 03:31:49 76° 320° (NW) 03:36:35 437.025 FM, 437.400 FM
Oscar 19 16 Sep 03:28:26 03:33:40 81° 289° (WNW) 03:38:50 437.125 CW, 437.150 USB
Saudisat 1A 16 Sep 03:32:10 03:36:16 37° 235° (SW) 03:40:20 436.775 MHz
AO-27 16 Sep 03:35:21 03:40:32 60° 102° (ESE) 03:45:41 436.795 MHz FM
JAS-1B 16 Sep 03:36:57 03:43:05 62° 102° (ESE) 03:48:41 435.800 - 435.900 CW/SSB
AO-7 16 Sep 03:57:29 04:02:33 17° 81° (E) 04:07:34 29.400 - 29.500 MHz
Gurwin Techsat 1B 16 Sep 04:03:39 04:08:53 54° 101° (E) 04:14:05 435.225 FM
Oscar 16 16 Sep 04:06:44 04:11:39 44° 297° (WNW) 04:16:33 437.025 USB, Beacon 2401.1428
RS-15 16 Sep 04:19:01 04:26:52 24° 100° (E) 04:34:40 29.354 - 29.394 USB, Beacon 29.352 USB
OPAL 16 Sep 04:20:14 04:25:23 67° 66° (ENE) 04:30:36 ?
Uosat F 16 Sep 04:22:48 04:25:34 15° 85° (E) 04:28:19 435.120 FM
KITSAT 1 16 Sep 04:37:59 04:46:08 78° 42° (NE) 04:54:13 435.175 FM
ITAMSAT 1 16 Sep 04:41:06 04:46:07 49° 295° (WNW) 04:51:08 435.822 SSB
TMSAT-1 16 Sep 04:43:31 04:48:53 82° 106° (ESE) 04:54:12 436.925 FM
Uribyol 2 16 Sep 04:46:29 04:51:25 44° 297° (WNW) 04:56:21 436.500 FM
SO-50 16 Sep 04:48:38 04:52:35 26° 4° (N) 04:56:36 436.795 FM
AO-Echo 16 Sep 04:54:32 04:58:44 32° 299° (WNW) 05:03:01 ?
STRAND 1 16 Sep 04:57:03 04:59:57 15° 47° (NE) 05:02:51 ?
UOSAT-12 16 Sep 05:08:25 05:12:38 31° 343° (NNW) 05:16:53 437.025 FM, 437.400 FM
Oscar 19 16 Sep 05:08:42 05:12:20 20° 309° (NW) 05:15:57 437.125 CW, 437.150 USB
AO-27 16 Sep 05:15:19 05:19:48 30° 303° (WNW) 05:24:17 436.795 MHz FM
ISS 16 Sep 05:18:02 05:19:56 15° 146° (SE) 05:21:51 145.800 FM
JAS-1B 16 Sep 05:28:04 05:33:27 31° 307° (NW) 05:38:24 435.800 - 435.900 CW/SSB
JAS-2 16 Sep 05:32:20 05:34:55 13° 83° (E) 05:37:36 435.800 - 435.900 CW/SSB, 435.910 FM
Gurwin Techsat 1B 16 Sep 05:43:58 05:48:41 33° 301° (WNW) 05:53:23 435.225 FM
Oscar 16 16 Sep 05:47:58 05:49:50 12° 318° (NW) 05:51:42 437.025 USB, Beacon 2401.1428
AO-7 16 Sep 05:48:56 05:57:11 62° 105° (ESE) 06:05:22 29.400 - 29.500 MHz
Uosat F 16 Sep 06:00:11 06:05:14 77° 105° (ESE) 06:10:16 435.120 FM
OPAL 16 Sep 06:00:26 06:04:43 26° 266° (W) 06:09:03 ?
ITAMSAT 1 16 Sep 06:22:12 06:24:33 13° 317° (NW) 06:26:53 435.822 SSB
TMSAT-1 16 Sep 06:24:09 06:28:17 24° 306° (NW) 06:32:25 436.925 FM
RS-15 16 Sep 06:26:19 06:37:10 70° 126° (SE) 06:48:00 29.354 - 29.394 USB, Beacon 29.352 USB
Uribyol 2 16 Sep 06:27:52 06:29:44 12° 319° (NW) 06:31:36 436.500 FM
SO-50 16 Sep 06:29:40 06:34:11 42° 28° (NNE) 06:38:47 436.795 FM
STRAND 1 16 Sep 06:33:15 06:38:15 62° 68° (ENE) 06:43:18 ?
KITSAT 1 16 Sep 06:33:46 06:41:03 39° 246° (WSW) 06:48:17 435.175 FM
Hamsat 16 Sep 06:40:25 06:44:15 30° 94° (E) 06:48:02 145.90 MHz
UOSAT-12 16 Sep 06:49:57 06:54:00 27° 7° (N) 06:58:02 437.025 FM, 437.400 FM
ISS 16 Sep 06:52:55 06:56:01 36° 165° (SSE) 06:59:08 145.800 FM
JAS-2 16 Sep 07:15:31 07:21:05 63° 102° (ESE) 07:27:19 435.800 - 435.900 CW/SSB, 435.910 FM
JAS-1B 16 Sep 07:21:08 07:22:05 10° 334° (NNW) 07:23:02 435.800 - 435.900 CW/SSB
Uosat F 16 Sep 07:39:39 07:43:34 24° 306° (NW) 07:47:30 435.120 FM
AO-7 16 Sep 07:42:04 07:49:50 47° 308° (NW) 07:57:35 29.400 - 29.500 MHz
SO-67 16 Sep 07:53:28 07:56:25 25° 94° (E) 07:59:19 435.3500 MHz FM
SO-50 16 Sep 08:10:17 08:15:00 60° 229° (SW) 08:19:46 436.795 FM
STRAND 1 16 Sep 08:13:37 08:17:52 26° 268° (W) 08:22:08 ?
Hamsat 16 Sep 08:16:17 08:20:20 40° 294° (WNW) 08:24:20 145.90 MHz
ISS 16 Sep 08:29:13 08:32:25 45° 185° (S) 08:35:38 145.800 FM
UOSAT-12 16 Sep 08:30:30 08:35:07 48° 31° (NNE) 08:39:42 437.025 FM, 437.400 FM
RS-15 16 Sep 08:39:07 08:49:57 62° 335° (NNW) 09:00:56 29.354 - 29.394 USB, Beacon 29.352 USB
MaSat-1 16 Sep 08:41:52 08:42:33 10° 99° (E) 08:43:13 437.345 MHz
JAS-2 16 Sep 09:01:10 09:06:01 32° 302° (WNW) 09:11:18 435.800 - 435.900 CW/SSB, 435.910 FM
HO-68 16 Sep 09:10:14 09:15:47 23° 87° (E) 09:21:17 435.675 MHz FM
SO-67 16 Sep 09:26:22 09:29:31 33° 293° (WNW) 09:32:39 435.3500 MHz FM
AO-7 16 Sep 09:35:15 09:40:49 21° 333° (NNW) 09:46:23 29.400 - 29.500 MHz
Oscar 11 16 Sep 09:37:31 09:38:05 10° 82° (E) 09:38:39 145.825 FM, Beacon 2401.500 USB
UKube-1 16 Sep 09:48:22 09:51:08 16° 88° (E) 09:53:54 145.840 MHz, 145.915 MHz
SO-50 16 Sep 09:52:30 09:54:43 13° 249° (WSW) 09:56:57 436.795 FM
